Location: Newark
(45.4422°N, 16.2769°E)
Time: 23:06:40
(UTC+00:00)

Tiros 1 despin weight - Pass Details

Date: 15 December 2019
Orbit: 594 x 643 km, 48.2° (Epoch: 22 January)

Event Time Altitude Azimuth Distance (km) Brightness Sun altitude
Rises 04:31:23 0° 270° (W) 2,887 - -19.4°
Reaches altitude 10° 04:33:44 10° 274° (W) 1,973 - -19.0°
Exits shadow 04:36:50 40° 294° (WNW) 897 ? -18.5°
Maximum altitude 04:38:13 61° 355° (N) 691 ? -18.3°
Drops below altitude 10° 04:42:39 10° 77° (ENE) 1,946 ? -17.5°
Sets 04:44:57 0° 81° (E) 2,842 ? -17.1°
